Regional Weather Roundup
Issued by NWS

Home | Current Version | Previous Version | Text Only | Print | Product List | Glossary On
Versions: 1 2 3 4 5 6 7 8 9 10 11 12 13 14 15 16 17 18 19 20 21 22 23 24 25 26 27 28 29 30 31 32 33 34 35 36 37 38 39 40 41 42 43 44 45 46 47 48 49 50
393
ASUS43 KDTX 010101
RWRMI
MICHIGAN HOURLY REGIONAL WEATHER ROUNDUP
NATIONAL WEATHER SERVICE DETROIT/PONTIAC MI
900 PM EDT SAT APR 30 2016

NOTE: "FAIR" INDICATES FEW OR NO CLOUDS BELOW 12,000 FEET WITH NO
SIGNIFICANT WEATHER AND/OR OBSTRUCTION TO VISIBILITY.

MIZ047>049-052>055-059>063-066>070-074>076-081>083-010200-
SOUTHEAST LOWER MICHIGAN

CITY           SKY/WX    TMP DP  RH WIND       PRES   REMARKS
ADRIAN         LGT RAIN  47  45  93 E14       29.97F FOG
ALMA           LGT RAIN  45  42  89 NE10      30.04S
ANN ARBOR      LGT RAIN  47  45  93 E10       30.00F FOG
BAD AXE        LGT RAIN  47  31  54 NE5       30.08S
CARO           RAIN      48  33  55 E6        30.06S
DETROIT CITY   LGT RAIN  48  45  89 E10       30.03F
DETROIT        RAIN      48  46  93 E5        30.03F FOG
FLINT          LGT RAIN  52  46  80 E12       30.04S
GROSSE ILE     LGT RAIN  48  45  87 E9        30.01F
HILLSDALE      LGT RAIN  46  46 100 E17       29.94F
HOWELL         LGT RAIN  48  46  95 E7        30.01F

CITY           SKY/WX    TMP DP  RH WIND       PRES   REMARKS
JACKSON        RAIN      47  45  93 E14       29.98S FOG
LAMBERTVILLE   LGT RAIN  49  47  93 E12       29.98F
LANSING        LGT RAIN  48  45  89 E10       30.01F
LAPEER         LGT RAIN  44  39  81 E5        30.05F
MASON          RAIN      47  46  93 E9        29.99F
MONROE         LGT RAIN  47  46  98 E12G17    30.00F
MT. CLEMENS    LGT RAIN  46  46 100 NE8       30.04F
PONTIAC        LGT RAIN  48  46  93 E9        30.02F
PORT HOPE        N/A     44  36  73 NE7       30.07F
PORT HURON     LGT RAIN  43  39  87 N3        30.06F
TRI CITIES     LGT RAIN  50  39  66 E12       30.06S
MIDLAND        LGT RAIN  45  35  68 NE9G17    30.06F
TROY           LGT RAIN  49  47  93 E7        30.05F
SAGINAW HB     LGT RAIN  48  41  76 E12       30.06R
$$
MIZ043>046-050>051-056>058-064>065-071>073-077>080-010200-
SOUTHWEST LOWER MICHIGAN

CITY           SKY/WX    TMP DP  RH WIND       PRES   REMARKS
BATTLE CREEK   LGT RAIN  48  45  89 E10       29.96F FOG
BENTON HARBOR  LGT RAIN  49  46  90 E7        29.93R FOG
BIG RAPIDS     LGT RAIN  48  36  62 E6        30.03S
COLDWATER      LGT RAIN  47  46  95 E12G18    29.94R
FREMONT        LGT RAIN  47  44  89 NE8       30.02S
HOLLAND        RAIN      48  44  86 E13       29.98S
GRAND RAPIDS   LGT RAIN  49  45  86 E13       29.99F
IONIA          LGT RAIN  47  44  91 NE8       30.00S
KALAMAZOO      LGT RAIN  49  45  86 E9        29.94F FOG
LUDINGTON      CLOUDY    54  34  47 SE7       30.05R
MARSHALL       LGT RAIN  48  46  93 E7G20     29.96F
MOUNT PLEASANT RAIN      46  37  69 E12       30.05R
MUSKEGON       LGT RAIN  49  44  83 NE8       30.01R
$$
MIZ016>042-010200-
NORTHERN LOWER MICHIGAN

CITY           SKY/WX    TMP DP  RH WIND       PRES   REMARKS
ALPENA         CLOUDY    47  31  53 NE3       30.12S
BEAVER ISLAND  MOCLDY    48  28  45 NE8       30.14R
BELLAIRE       CLOUDY    55  27  33 E7        30.08R
CADILLAC       CLOUDY    51  29  42 E9        30.04S
CHARLEVOIX     CLOUDY    52  27  37 NE7       30.13R
FRANKFORT      CLOUDY    53  33  47 NE6       30.06R
GAYLORD        MOCLDY    51  23  33 VRB5      30.09R
HARBOR SPRINGS CLOUDY    51  24  35 E8        30.11R
HOUGHTON LAKE  CLOUDY    51  30  44 E12       30.07R
MANISTEE       CLOUDY    54  28  37 NE6       30.05R
OSCODA         CLOUDY    47  30  51 N5        30.09F
PELLSTON       CLOUDY    51  23  33 E7        30.12R
ROGERS CITY    CLOUDY    40  35  81 CALM      30.13S
TRAVERSE CITY  CLOUDY    50  35  56 CALM      30.06R
$$
MIZ007>008-015-010200-
EASTERN UPPER MICHIGAN

CITY           SKY/WX    TMP DP  RH WIND       PRES   REMARKS
KINROSS          N/A     45  34  65 N3        30.14R
MACKINAC ISLAN CLOUDY    44  25  48 E8        30.14R
NEWBERRY       CLOUDY    44  34  69 N5        30.15R
S. S. MARIE    MOCLDY    47  35  63 SW3       30.13S
MUNISING         N/A     40  36  86 NW7       30.19R
$$
MIZ004>006-011>014-085-010200-
CENTRAL UPPER MICHIGAN

CITY           SKY/WX    TMP DP  RH WIND       PRES   REMARKS
MANISTIQUE     MOCLDY    47  34  60 N9        30.15R
ESCANABA       MOCLDY    46  30  53 N8        30.16R
MENOMINEE      CLOUDY    52  30  43 NE12      30.12R
SAWYER-GWINN   CLEAR     39  32  75 N8        30.17R WCI  34
$$
MIZ001>003-009>011-084-010200-
WESTERN UPPER MICHIGAN

CITY           SKY/WX    TMP DP  RH WIND       PRES   REMARKS
IRON MOUNTAIN  CLOUDY    48  29  47 NE9       30.14R
HOUGHTON       CLEAR     44  31  60 E6        30.21R
COPPER HARBOR    N/A     41  35  79 N6        30.23S
IRONWOOD         N/A     43  34  70 NE9       30.17R
$$

ABBREVIATIONS USED IN REMARKS
   TC - TEMPERATURE IN CELSIUS
  WCI - WIND CHILL INDEX
   HX - HEAT INDEX
  VSB - VISIBILITY





USA.gov is the U.S. government's official web portal to all federal, state and local government web resources and services.